Tracking 17925 objects as of 19-February-2017
HD Live streaming from Space Station
objects crossing your sky now

DELTA 1 DEB

Track DELTA 1 DEB now!
10-day predictions


NORAD ID: 15205
Int'l Code: 1984-088E
Perigee: 27,739.5 km
Apogee: 44,000.7 km
Inclination: 28.7 °
Period: 1,440.0 minutes
Semi major axis: 42241 km
RCS: 0.0578 m2 (small)
Launch date: August 16, 1984
Source: United States (US)
Launch site: AIR FORCE EASTERN TEST RANGE (AFETR)

Note: This is SATELLITE DEBRIS
Your satellite tracking list
Your tracking list is empty





NASA's NSSDC Master Catalog

Two Line Element Set (TLE):
1 15205U 84088E   17048.74548894  .00000141  00000-0  60560-4 0  9997
2 15205  28.7277 317.4429 1924799 350.0752  29.4556 10.92725441864768
Source of the keplerian elements: AFSPC